Regional Weather Roundup
Issued by NWS

Home | Current Version | Previous Version | Graphics & Text | Print | Product List | Glossary On
Versions: 1 2 3 4 5 6 7 8 9 10 11 12 13 14 15 16 17 18 19 20 21 22 23 24 25 26 27 28 29 30 31 32 33 34 35 36 37 38 39 40 41 42 43 44 45 46 47 48 49 50
000
ASUS45 KABQ 232010
RWRNM
NEW MEXICO REGIONAL WEATHER ROUNDUP
NATIONAL WEATHER SERVICE ALBUQUERQUE NM
200 PM MDT SAT JUL 23 2016

NOTE: "FAIR" MEANS FEW OR NO CLOUDS BELOW 12,000 FEET AGL WITH NO
       SIGNIFICANT WEATHER OR OBSTRUCTIONS TO VISION.

      THIS PRODUCT IS RELEASED AS TWO VERSIONS.  ONE VERSION NEAR
      THE TOP OF THE HOUR CONTAINING PRELIMINARY DATA FROM ALBUQUERQUE
      AND OTHER STATIONS.  A FINAL VERSION WITH ADDITIONAL DATA IS
      ISSUED ABOUT 10 MINUTES AFTER THE HOUR.

NMZ501-503-504-510>518-232100-
NORTHWEST PLATEAU/NORTHCENTRAL MOUNTAINS

CITY           SKY/WX    TMP DP  RH WIND       PRES   REMARKS
FARMINGTON     FAIR      93  45  19 W12G22    30.13F
LOS ALAMOS     FAIR     N/A N/A N/A W3        30.26F
SANTA FE       FAIR      96  42  15 W10G22    30.17F
TAOS           FAIR      88  41  19 NW5       30.26F
ANGEL FIRE     FAIR      81  40  23 W7G18     30.37F

$$
NMZ402-403-502-505>509-232100-
WESTCENTRAL MOUNTAINS/SOUTHWEST MOUNTAINS

CITY           SKY/WX    TMP DP  RH WIND       PRES   REMARKS
GALLUP         FAIR      92  40  16 VRB5G20   30.23F
GRANTS         FAIR      89  41  18 NW9G20    30.24S
SILVER CITY    FAIR      95  46  18 S14G20    30.13F

$$
NMZ407-409-411-412-232100-
SOUTHERN DESERTS

CITY           SKY/WX    TMP DP  RH WIND       PRES   REMARKS
LORDSBURG      FAIR      97  46  17 W12       30.05F
DEMING         FAIR     101  44  14 E8        30.03F HX  97
LAS CRUCES     FAIR     100  40  13 SE8       30.06F HX  95
ALAMOGORDO     FAIR      99  41  13 CALM      30.03F
T OR C         FAIR      98  42  14 VRB3      30.06F

$$
NMZ519>523-232100-
CENTRAL VALLEYS/CENTRAL HIGHLANDS

CITY           SKY/WX    TMP DP  RH WIND       PRES   REMARKS
ALBUQUERQUE    FAIR      96  44  16 MISG      30.11F
DOUBLE EAGLE   PTSUNNY   97  45  16 VRB7      30.16F
MORIARTY ARPT  FAIR      93  37  14 N5        30.17F
CLINES CORNERS FAIR      91  40  16 MISG      30.25F
BELEN          FAIR      96  40  14 CALM      30.10F
SOCORRO        FAIR      97  42  15 CALM      30.07F

$$
NMZ524>526-539-540-232100-
SOUTHCENTRAL MOUNTAINS

CITY           SKY/WX    TMP DP  RH WIND       PRES   REMARKS
RUIDOSO        NOT AVBL

$$
NMZ527>531-232100-
NORTHEAST HIGHLANDS/NORTHEAST PLAINS

CITY           SKY/WX    TMP DP  RH WIND       PRES   REMARKS
LAS VEGAS      CLOUDY    83  44  25 NW23G30   30.21S THUNDER
RATON          FAIR      85  52  32 NE13      30.16F
CLAYTON        FAIR     100  50  18 S18G28    30.05F HX  97

$$
NMZ532>537-232100-
EASTCENTRAL PLAINS

CITY           SKY/WX    TMP DP  RH WIND       PRES   REMARKS
TUCUMCARI      FAIR     103  43  13 S13G21    29.98F HX  98
CANNON AFB     FAIR      96  48  19 S8G23     30.06F
CLOVIS AIRPORT FAIR      97  50  20 S13G20    30.06F

$$
NMZ028-029-538-232100-
SOUTHEAST PLAINS

CITY           SKY/WX    TMP DP  RH WIND       PRES   REMARKS
ROSWELL        FAIR      99  46  16 S9        30.00F HX  95
ARTESIA        FAIR      99  48  18 SE9G17    30.00F HX  95
CARLSBAD       FAIR      99  48  17 VRB5      29.97F HX  95
HOBBS          SUNNY     95  46  18 SE12G17   30.04F


$$




USA.gov is the U.S. government's official web portal to all federal, state and local government web resources and services.